• In Moldova, Republic
  • List of Countries
  • For 7 days
  • Water Temperature
  • Satellite Maps
  • Weather Map
  • Weather Widgets
  • user-avatar
    Login

    Hourly Weather Sydney

    Today, 28 March, Tuesday

    Time Temperature Precipitation Wind Pressure Humidity
    00:00 +21°C° 0.5 mm 3 mps 757 mmHg 88%
    01:00 +20°C° 0.5 mm 3 mps 757 mmHg 91%
    02:00 +20°C° 0.2 mm 3 mps 757 mmHg 92%
    03:00 +20°C° 0.2 mm 4 mps 757 mmHg 93%
    04:00 +20°C° 0 mm 6 mps 757 mmHg 95%
    05:00 +20°C° 0 mm 5 mps 758 mmHg 94%
    06:00 +20°C° 0 mm 5 mps 758 mmHg 94%
    07:00 +21°C° 0 mm 5 mps 759 mmHg 94%
    08:00 +22°C° 0 mm 5 mps 759 mmHg 87%
    09:00 +23°C° 0 mm 4 mps 759 mmHg 81%
    10:00 +26°C° 0 mm 4 mps 759 mmHg 74%
    11:00 +26°C° 0 mm 3 mps 758 mmHg 72%
    12:00 +27°C° 0 mm 3 mps 758 mmHg 70%
    13:00 +27°C° 0 mm 3 mps 758 mmHg 68%
    14:00 +27°C° 0 mm 3 mps 758 mmHg 69%
    15:00 +27°C° 0 mm 3 mps 757 mmHg 71%
    16:00 +27°C° 0 mm 3 mps 757 mmHg 72%
    17:00 +26°C° 0 mm 3 mps 758 mmHg 78%
    18:00 +25°C° 0 mm 3 mps 758 mmHg 84%
    19:00 +24°C° 0 mm 2 mps 758 mmHg 90%
    20:00 +23°C° 0 mm 2 mps 759 mmHg 91%
    21:00 +23°C° 0 mm 2 mps 759 mmHg 91%
    22:00 +23°C° 0 mm 1 mps 759 mmHg 92%
    23:00 +23°C° 0 mm 1 mps 759 mmHg 93%

    Tomorrow, 29 March, Wednesday

    Time Temperature Precipitation Wind Pressure Humidity
    00:00 +23°C° 0 mm 1 mps 759 mmHg 94%
    01:00 +23°C° 0 mm 1 mps 758 mmHg 96%
    02:00 +23°C° 0 mm 1 mps 758 mmHg 96%
    03:00 +23°C° 0 mm 1 mps 758 mmHg 96%
    04:00 +23°C° 0 mm 1 mps 758 mmHg 97%
    05:00 +23°C° 0 mm 1 mps 758 mmHg 96%
    06:00 +23°C° 0 mm 1 mps 758 mmHg 95%
    07:00 +24°C° 0 mm 1 mps 758 mmHg 94%
    08:00 +26°C° 0 mm 2 mps 758 mmHg 85%
    09:00 +27°C° 0 mm 2 mps 758 mmHg 76%
    10:00 +29°C° 0 mm 2 mps 758 mmHg 67%
    11:00 +31°C° 0 mm 3 mps 757 mmHg 61%
    12:00 +34°C° 0 mm 3 mps 757 mmHg 54%
    13:00 +36°C° 0 mm 4 mps 756 mmHg 47%
    14:00 +35°C° 0 mm 4 mps 755 mmHg 49%
    15:00 +35°C° 0 mm 5 mps 755 mmHg 51%
    16:00 +34°C° 0 mm 6 mps 754 mmHg 53%
    17:00 +32°C° 0.1 mm 6 mps 754 mmHg 62%
    18:00 +29°C° 0.1 mm 6 mps 755 mmHg 70%
    19:00 +27°C° 0.1 mm 6 mps 755 mmHg 78%
    20:00 +27°C° 0 mm 5 mps 755 mmHg 79%
    21:00 +26°C° 0 mm 5 mps 755 mmHg 80%
    22:00 +26°C° 0 mm 5 mps 756 mmHg 82%
    23:00 +25°C° 0 mm 4 mps 755 mmHg 82%

    Day after tomorrow, 30 March, Thursday

    Time Temperature Precipitation Wind Pressure Humidity
    00:00 +25°C° 0 mm 4 mps 755 mmHg 82%
    01:00 +25°C° 0 mm 3 mps 755 mmHg 82%
    02:00 +24°C° 0.1 mm 3 mps 754 mmHg 82%
    03:00 +24°C° 0.1 mm 3 mps 754 mmHg 81%
    04:00 +24°C° 0.1 mm 2 mps 754 mmHg 81%
    05:00 +24°C° 0.1 mm 3 mps 754 mmHg 81%
    06:00 +24°C° 0.1 mm 3 mps 755 mmHg 81%
    07:00 +24°C° 0.1 mm 3 mps 755 mmHg 82%
    08:00 +23°C° 1 mm 4 mps 756 mmHg 84%
    09:00 +23°C° 1 mm 5 mps 756 mmHg 87%
    10:00 +23°C° 1 mm 6 mps 756 mmHg 89%
    11:00 +22°C° 1.7 mm 6 mps 756 mmHg 91%
    12:00 +21°C° 1.7 mm 7 mps 756 mmHg 92%
    13:00 +20°C° 1.7 mm 7 mps 755 mmHg 94%
    14:00 +20°C° 2.5 mm 7 mps 755 mmHg 94%
    15:00 +18°C° 2.5 mm 8 mps 755 mmHg 95%
    16:00 +18°C° 2.5 mm 8 mps 755 mmHg 95%
    17:00 +17°C° 1.9 mm 8 mps 755 mmHg 95%
    18:00 +17°C° 1.9 mm 8 mps 756 mmHg 95%
    19:00 +17°C° 1.9 mm 8 mps 756 mmHg 95%
    20:00 +17°C° 0.5 mm 9 mps 757 mmHg 94%
    21:00 +16°C° 0.5 mm 9 mps 757 mmHg 93%
    22:00 +16°C° 0.5 mm 10 mps 758 mmHg 92%
    23:00 +14°C° 0.8 mm 10 mps 758 mmHg 91%

    31 March, Friday

    Time Temperature Precipitation Wind Pressure Humidity
    00:00 +14°C° 0.8 mm 10 mps 758 mmHg 89%
    01:00 +14°C° 0.8 mm 11 mps 758 mmHg 88%
    02:00 +14°C° 0.4 mm 10 mps 758 mmHg 86%
    03:00 +14°C° 0.4 mm 10 mps 758 mmHg 84%
    04:00 +14°C° 0.4 mm 10 mps 758 mmHg 81%
    05:00 +15°C° 0.1 mm 9 mps 759 mmHg 81%
    06:00 +15°C° 0.1 mm 9 mps 759 mmHg 80%
    07:00 +15°C° 0.1 mm 8 mps 760 mmHg 79%
    08:00 +17°C° 0.1 mm 8 mps 760 mmHg 75%
    09:00 +18°C° 0.1 mm 8 mps 760 mmHg 71%
    10:00 +20°C° 0.1 mm 8 mps 761 mmHg 67%
    11:00 +20°C° 0.1 mm 8 mps 761 mmHg 64%
    12:00 +21°C° 0.1 mm 8 mps 760 mmHg 62%
    13:00 +21°C° 0.1 mm 8 mps 760 mmHg 60%
    14:00 +21°C° 0.1 mm 7 mps 760 mmHg 59%
    15:00 +21°C° 0.1 mm 7 mps 760 mmHg 59%
    16:00 +21°C° 0.1 mm 7 mps 761 mmHg 58%
    17:00 +20°C° 0.1 mm 6 mps 761 mmHg 66%
    18:00 +17°C° 0.1 mm 6 mps 762 mmHg 74%
    19:00 +16°C° 0.1 mm 5 mps 762 mmHg 82%
    20:00 +15°C° 0.1 mm 5 mps 762 mmHg 83%
    21:00 +15°C° 0.1 mm 5 mps 762 mmHg 85%
    22:00 +15°C° 0.1 mm 4 mps 763 mmHg 86%
    23:00 +14°C° 0.1 mm 4 mps 762 mmHg 87%

    1 April, Saturday

    Time Temperature Precipitation Wind Pressure Humidity
    00:00 +14°C° 0.1 mm 4 mps 762 mmHg 88%
    01:00 +14°C° 0.1 mm 4 mps 762 mmHg 89%
    02:00 +13°C° 0 mm 3 mps 762 mmHg 90%
    03:00 +13°C° 0 mm 3 mps 762 mmHg 91%
    04:00 +13°C° 0 mm 3 mps 762 mmHg 92%
    05:00 +13°C° 0 mm 3 mps 762 mmHg 89%
    06:00 +14°C° 0 mm 3 mps 762 mmHg 86%
    07:00 +14°C° 0 mm 3 mps 763 mmHg 84%
    08:00 +18°C° 0 mm 3 mps 763 mmHg 73%
    09:00 +20°C° 0 mm 3 mps 763 mmHg 62%
    10:00 +24°C° 0 mm 2 mps 763 mmHg 52%
    11:00 +25°C° 0 mm 2 mps 763 mmHg 46%
    12:00 +27°C° 0 mm 2 mps 763 mmHg 40%
    13:00 +28°C° 0 mm 2 mps 762 mmHg 34%
    14:00 +27°C° 0 mm 2 mps 762 mmHg 38%
    15:00 +26°C° 0 mm 3 mps 762 mmHg 42%
    16:00 +25°C° 0 mm 4 mps 762 mmHg 45%
    17:00 +22°C° 0 mm 4 mps 763 mmHg 57%
    18:00 +20°C° 0 mm 4 mps 764 mmHg 69%
    19:00 +18°C° 0 mm 4 mps 764 mmHg 81%
    20:00 +18°C° 0 mm 4 mps 765 mmHg 82%
    21:00 +17°C° 0 mm 4 mps 765 mmHg 83%
    22:00 +17°C° 0 mm 4 mps 766 mmHg 84%
    23:00 +17°C° 0.1 mm 4 mps 766 mmHg 84%

    2 April, Sunday

    Time Temperature Precipitation Wind Pressure Humidity
    00:00 +16°C° 0.1 mm 5 mps 766 mmHg 83%
    01:00 +16°C° 0.1 mm 5 mps 766 mmHg 83%
    02:00 +16°C° 0.4 mm 5 mps 766 mmHg 85%
    03:00 +16°C° 0.4 mm 6 mps 766 mmHg 87%
    04:00 +16°C° 0.4 mm 6 mps 767 mmHg 89%
    05:00 +16°C° 0.5 mm 6 mps 767 mmHg 88%
    06:00 +15°C° 0.5 mm 6 mps 768 mmHg 87%
    07:00 +15°C° 0.5 mm 7 mps 769 mmHg 87%
    08:00 +16°C° 0.4 mm 6 mps 769 mmHg 82%
    09:00 +17°C° 0.4 mm 6 mps 769 mmHg 78%
    10:00 +19°C° 0.4 mm 6 mps 769 mmHg 73%
    11:00 +20°C° 0.4 mm 6 mps 769 mmHg 71%
    12:00 +20°C° 0.4 mm 6 mps 769 mmHg 69%
    13:00 +21°C° 0.4 mm 6 mps 769 mmHg 66%
    14:00 +21°C° 0.3 mm 6 mps 769 mmHg 68%
    15:00 +20°C° 0.3 mm 6 mps 769 mmHg 70%
    16:00 +20°C° 0.3 mm 6 mps 769 mmHg 72%
    17:00 +19°C° 0.2 mm 6 mps 770 mmHg 76%
    18:00 +17°C° 0.2 mm 5 mps 770 mmHg 81%
    19:00 +16°C° 0.2 mm 5 mps 771 mmHg 85%
    20:00 +16°C° 0.3 mm 5 mps 771 mmHg 86%
    21:00 +15°C° 0.3 mm 4 mps 771 mmHg 86%
    22:00 +15°C° 0.3 mm 4 mps 771 mmHg 87%
    23:00 +15°C° 0.5 mm 4 mps 771 mmHg 88%
    Show more